Flag for U.S.A. Weather past 2 weeks in Youngstown, Ohio, U.S.A.

Now
40 °F

Passing clouds.


Feels Like: 40 °F
Forecast: 39 / 69 °F
Wind: No wind

Location: Youngstown-Warren Regional Airport

Current Time: Sep 23, 2014 at 9:10:59 AM

Latest Report: Sep 23, 2014 at 7:51 AM


Visibility: 8 mi

Pressure: 30.37 "Hg

Humidity: 97%

Dew point: 39 °F

Location of YoungstownLocation

Historic Weather in Youngstown — Graph

°F

Youngstown temperature yesterday

Maximum temperature yesterday: 55 °F (at 2:51 PM)
Minimum temperature yesterday: 42 °F (at 11:51 PM)
Average temperature yesterday: 51 °F

Past Weeks' High & Low Weather Summary

 TemperatureHumidityPressure
High80 °F (Sep 10, 3:51 PM)100% (Sep 16, 6:51 AM)30.37 "Hg (Sep 16, 6:51 AM)
Low36 °F (Sep 23, 6:51 AM)40% (Sep 21, 3:51 PM)29.64 "Hg (Sep 21, 3:51 PM)
Average59 °F79%30.09 "Hg
* Reported Sep 8 7:51 AM — Sep 23 7:51 AM, Youngstown, Weather by CustomWeather, © 2014

Note: Actual official high and low records may vary slightly from our data, if they occured in-between our weather recording intervals... More about our weather records

Advertising

Youngstown weather history for previous 24 hours

 ConditionsComfort  
Time TempWeatherWind HumidityBarometerVisibility
7:51 AM
Sep 23
40 °FPassing clouds.No wind97%30.37 "Hg8 mi
6:51 AM36 °FClear.No wind97%30.35 "Hg10 mi
5:51 AM38 °FClear.No wind97%30.33 "Hg9 mi
4:51 AM42 °FClear.No wind92%30.31 "Hg10 mi
3:51 AM40 °FClear.No wind97%30.30 "Hg10 mi
2:51 AM42 °FClear.No wind92%30.29 "Hg10 mi
1:51 AM42 °FClear.3 mph89%30.30 "Hg10 mi
12:51 AM42 °FClear.No wind89%30.29 "Hg10 mi
11:51 PM
Sep 22
42 °FClear.No wind92%30.29 "Hg10 mi
10:51 PM45 °FPassing clouds.No wind90%30.29 "Hg10 mi
9:51 PM45 °FPassing clouds.No wind93%30.27 "Hg10 mi
8:51 PM46 °FPassing clouds.No wind89%30.27 "Hg10 mi
7:51 PM50 °FPartly sunny.No wind77%30.24 "Hg10 mi
6:51 PM52 °FMore clouds than sun.5 mph75%30.22 "Hg10 mi
5:51 PM52 °FOvercast.8 mph69%30.21 "Hg10 mi
4:51 PM54 °FOvercast.12 mph64%30.19 "Hg10 mi
3:51 PM55 °FOvercast.8 mph62%30.18 "Hg10 mi
2:51 PM55 °FOvercast.7 mph62%30.17 "Hg10 mi
1:51 PM54 °FOvercast.10 mph64%30.19 "Hg10 mi
12:51 PM53 °FOvercast.12 mph66%30.17 "Hg10 mi
11:51 AM53 °FMostly cloudy.10 mph66%30.16 "Hg10 mi
10:51 AM53 °FMore clouds than sun.10 mph72%30.14 "Hg10 mi
9:51 AM52 °FOvercast.8 mph75%30.11 "Hg10 mi
Weather by CustomWeather, © 2014

See weather overviewHow to use our weather pages